カタログに戻る

OPS 4682 DEB

運用中PO
NORAD 51765·DEBRIS·🇺🇸 United States

打ち上げ Apr 3, 1965 から Vandenberg Space Force Base

Loading…

次のパス (今後24時間)

TLE

最新Source: Space-Track

元期: Sep 14, 2026, 06:00 UTC

1 51765U 65027GW  26257.25065125 -.00000226  00000-0 -73546-3 0  9992
2 51765  90.2410   3.4363 0028275   3.1880  25.1419 13.03737541603549

AllMySatでOPS 4682 DEBをリアルタイム追跡

Download on the App Store